Location: Unspecified
(33.6682°S, 0.0000°E)
Time: 11:06:00
(UTC+00:00)

Tiros 1 despin weight - Pass Details

Date: 19 June 2019
Orbit: 594 x 642 km, 48.2° (Epoch: 20 July)

Event Time Altitude Azimuth Distance (km) Brightness Sun altitude
Rises 17:49:12 0° 228° (SW) 2,970 ? -10.4°
Reaches altitude 10° 17:51:38 10° 222° (SW) 2,054 ? -10.8°
Maximum altitude 17:56:14 48° 147° (SSE) 844 ? -11.7°
Enters shadow 18:00:23 12° 74° (ENE) 1,889 ? -12.5°
Drops below altitude 10° 18:00:44 10° 72° (ENE) 2,019 - -12.6°
Sets 18:03:07 0° 66° (ENE) 2,914 - -13.1°
